"2000/01/01", 6.6, 7.2, 6.0
"2000/01/02", 6.4, 6.8, 6.1
"2000/01/03", 6.7, 7.0, 6.3
"2000/01/04", 6.7, 7.5, 6.2
"2000/01/05", 6.7, 6.9, 6.3
"2000/01/06", 6.9, 7.5, 6.7
"2000/01/07", 7.3, 8.0, 7.1
"2000/01/08", 7.5, 7.6, 7.3
"2000/01/09", 7.3, 7.4, 7.0
"2000/01/10", 7.5, 8.0, 7.2
"2000/01/11", 7.3, 7.7, 6.7
"2000/01/12", 6.5, 6.7, 6.3
"2000/01/13", 6.4, 6.6, 6.0
"2000/01/14", 6.9, 7.3, 6.5
"2000/01/15", 7.0, 7.2, 6.8
"2000/01/16", 7.1, 7.5, 6.7
"2000/01/17", 6.9, 7.2, 6.7
"2000/01/18", 6.8, 7.2, 6.6
"2000/01/19", 6.5, 6.8, 6.3
"2000/01/20", 6.4, 6.9, 6.0
"2000/01/21", 5.7, 6.3, 4.3
"2000/01/22", 5.4, 5.8, 4.8
"2000/01/23", 5.5, 5.9, 5.1
"2000/01/24", 5.6, 6.0, 5.4
"2000/01/25", 5.5, 5.7, 5.2
"2000/01/26", 5.2, 5.6, 4.7
"2000/01/27", 4.9, 5.2, 4.6
"2000/01/28", 4.9, 5.4, 3.9
"2000/01/29", 4.9, 5.7, 4.2
"2000/01/30", 5.1, 5.9, 4.6
"2000/01/31", 5.3, 5.9, 4.9
"2000/02/01", 5.2, 5.6, 4.5
"2000/02/02", 5.4, 5.7, 4.8
"2000/02/03", 5.5, 5.9, 5.2
"2000/02/04", 5.6, 6.0, 5.2
"2000/02/05", 5.7, 6.2, 5.2
"2000/02/06", 5.8, 6.1, 5.6
"2000/02/07", 6.2, 7.0, 5.7
"2000/02/08", 6.4, 7.2, 6.1
"2000/02/09", 5.9, 6.6, 5.2
"2000/02/10", 5.4, 5.9, 4.7
"2000/02/11", 5.2, 5.8, 5.0
"2000/02/12", 5.7, 6.6, 5.0
"2000/02/13", 5.9, 6.8, 5.6
"2000/02/14", 5.7, 5.8, 5.5
"2000/02/15", 5.5, 6.1, 5.2
"2000/02/16", 4.8, 5.4, 4.2
"2000/02/17", 4.6, 5.1, 3.8
"2000/02/18", 4.5, 5.0, 4.2
"2000/02/19", 4.2, 5.0, 3.3
"2000/02/20", 4.6, 4.7, 4.3
"2000/02/21", 4.4, 5.2, 3.9
"2000/02/22", 4.3, 5.1, 3.8
"2000/02/23", 4.0, 4.5, 3.2
"2000/02/24", 4.5, 5.1, 3.9
"2000/02/25", 4.5, 5.4, 3.9
"2000/02/26", 4.1, 4.4, 3.8
"2000/02/27", 4.4, 5.6, 3.5
"2000/02/28", 4.8, 5.7, 4.1
"2000/02/29", 4.6, 5.2, 3.7
"2000/03/01", 4.5, 5.4, 3.8
"2000/03/02", 5.3, 6.2, 4.4
"2000/03/03", 5.9, 7.4, 5.3
"2000/03/04", 6.0, 6.5, 5.6
"2000/03/05", 6.7, 7.9, 6.1
"2000/03/06", 6.5, 6.9, 6.2
"2000/03/07", 7.0, 8.3, 6.2
"2000/03/08", 7.6, 8.6, 6.9
"2000/03/09", 7.5, 8.2, 7.1
"2000/03/10", 6.8, 7.3, 5.9
"2000/03/11", 6.5, 6.9, 5.9
"2000/03/12", 6.7, 7.0, 6.5
"2000/03/13", 7.1, 8.3, 6.6
"2000/03/14", 6.9, 8.0, 5.5
"2000/03/15", 7.3, 8.3, 6.5
"2000/03/16", 7.3, 7.5, 7.2
"2000/03/17", 7.1, 7.9, 6.4
"2000/03/18", 7.4, 8.7, 6.7
"2000/03/19", 7.9, 8.9, 7.3
"2000/03/20", 8.4, 9.2, 7.9
"2000/03/21"," *"," *"," *"
"2000/03/22", 8.6, 9.5, 8.1
"2000/03/23", 8.5, 8.9, 8.2
"2000/03/24", 8.8, 9.5, 8.2
"2000/03/25", 8.5, 9.6, 7.4
"2000/03/26", 8.5, 9.9, 8.1
"2000/03/27", 8.2, 9.3, 7.2
"2000/03/28", 8.9, 9.6, 8.4
"2000/03/29",10.1,12.0, 9.0
"2000/03/30"," *"," *"," *"
"2000/03/31",10.4,11.0, 9.8
"2000/04/01",10.8,11.5,10.1
"2000/04/02",10.6,11.5, 9.8
"2000/04/03",10.4,10.7,10.1
"2000/04/04",10.4,11.3, 9.6
"2000/04/05",10.7,11.2,10.4
"2000/04/06",11.4,12.5,10.6
"2000/04/07",11.5,12.1,11.1
"2000/04/08",12.1,13.3,11.3
"2000/04/09",12.5,13.4,12.0
"2000/04/10",13.2,13.7,12.7
"2000/04/11",13.3,14.4,12.9
"2000/04/12",13.5,14.7,12.9
"2000/04/13",13.9,15.3,13.1
"2000/04/14",14.3,15.1,13.7
"2000/04/15",13.9,14.2,13.3
"2000/04/16",13.2,13.9,12.6
"2000/04/17",13.8,15.4,13.1
"2000/04/18",14.1,15.6,13.5
"2000/04/19",14.3,15.6,13.5
"2000/04/20",13.6,14.1,13.3
"2000/04/21",13.3,13.5,13.0
"2000/04/22",14.3,15.9,13.5
"2000/04/23",15.2,17.1,14.4
"2000/04/24",15.2,16.4,14.5
"2000/04/25",15.0,15.6,14.6
"2000/04/26",14.9,15.2,14.7
"2000/04/27",14.9,15.5,14.6
"2000/04/28",15.4,16.6,14.7
"2000/04/29",15.3,15.8,14.7
"2000/04/30",15.8,17.3,14.8
"2000/05/01",16.6,17.2,16.0
"2000/05/02",16.9,18.1,16.4
"2000/05/03",16.9,17.5,16.7
"2000/05/04",17.4,19.0,16.0
"2000/05/05",17.5,18.7,16.9
"2000/05/06",17.5,18.0,17.2
"2000/05/07",17.8,18.8,17.1
"2000/05/08",18.5,19.3,17.9
"2000/05/09",18.8,20.2,18.3
"2000/05/10",18.4,18.9,18.1
"2000/05/11",18.0,18.3,17.8
"2000/05/12",18.2,19.0,17.6
"2000/05/13",18.4,18.8,18.1
"2000/05/14",18.8,19.7,18.2
"2000/05/15",19.1,20.5,18.6
"2000/05/16",19.4,20.9,18.6
"2000/05/17",19.1,19.4,18.7
"2000/05/18",18.3,18.7,18.1
"2000/05/19",18.1,18.4,17.9
"2000/05/20",18.1,18.3,17.8
"2000/05/21",18.0,18.9,17.2
"2000/05/22",18.8,20.7,17.9
"2000/05/23",19.7,22.1,18.1
"2000/05/24",20.1,21.0,19.6
"2000/05/25",19.9,21.1,19.2
"2000/05/26",19.4,19.8,19.1
"2000/05/27",20.5,21.5,19.2
"2000/05/28",20.7,21.1,20.2
"2000/05/29",21.7,23.0,20.6
"2000/05/30",22.0,23.2,21.2
"2000/05/31",22.0,22.5,21.6
"2000/06/01",22.1,23.4,20.8
"2000/06/02",22.2,24.0,21.5
"2000/06/03",22.2,22.7,21.8
"2000/06/04",22.3,23.5,21.1
"2000/06/05",22.2,23.4,21.4
"2000/06/06",22.5,23.5,21.6
"2000/06/07",22.4,23.0,22.0
"2000/06/08",23.1,24.1,22.3
"2000/06/09",22.9,23.4,22.3
"2000/06/10",22.2,22.5,22.0
"2000/06/11",21.7,22.1,21.3
"2000/06/12",21.1,21.4,20.9
"2000/06/13",20.5,20.8,20.3
"2000/06/14",20.5,20.9,19.9
"2000/06/15",20.9,23.1,20.1
"2000/06/16",21.1,23.3,20.5
"2000/06/17",20.9,21.5,20.8
"2000/06/18",21.8,24.8,20.4
"2000/06/19",22.7,24.8,21.6
"2000/06/20",23.0,24.9,21.8
"2000/06/21",22.3,23.3,21.9
"2000/06/22",23.0,23.5,22.4
"2000/06/23",23.1,23.3,22.7
"2000/06/24",22.5,22.7,22.0
"2000/06/25",21.6,22.0,21.3
"2000/06/26",21.4,22.3,20.5
"2000/06/27",22.1,23.0,21.6
"2000/06/28",22.5,22.9,22.0
"2000/06/29",22.4,23.0,22.1
"2000/06/30",22.9,23.4,22.6
"2000/07/01",23.1,23.6,22.9
"2000/07/02",24.5,26.8,23.4
"2000/07/03",26.0,27.9,24.7
"2000/07/04",26.2,27.3,25.2
"2000/07/05",26.2,27.9,25.3
"2000/07/06",25.9,27.1,25.2
"2000/07/07",25.1,25.7,24.4
"2000/07/08",24.1,24.7,23.0
"2000/07/09",24.1,24.9,23.6
"2000/07/10",25.3,27.1,24.5
"2000/07/11",25.5,27.3,24.5
"2000/07/12",25.2,26.3,24.6
"2000/07/13",25.2,26.1,24.9
"2000/07/14",25.6,26.9,24.8
"2000/07/15",25.7,27.1,25.4
"2000/07/16",26.9,28.6,25.7
"2000/07/17",27.5,29.4,26.6
"2000/07/18",27.6,29.0,26.9
"2000/07/19",27.7,29.2,27.2
"2000/07/20",28.1,29.4,27.3
"2000/07/21",27.8,28.0,27.5
"2000/07/22",28.1,30.0,26.9
"2000/07/23",28.6,30.8,27.7
"2000/07/24",28.2,29.2,27.5
"2000/07/25",27.2,27.5,26.7
"2000/07/26",26.8,27.1,26.6
"2000/07/27",26.8,27.6,26.3
"2000/07/28",26.8,27.1,26.4
"2000/07/29",27.0,28.0,26.6
"2000/07/30",27.5,28.2,27.0
"2000/07/31",27.6,28.5,26.8
"2000/08/01",27.9,28.6,27.5
"2000/08/02",28.1,29.1,27.7
"2000/08/03",28.9,31.6,27.7
"2000/08/04",29.1,30.4,28.4
"2000/08/05",29.3,30.3,28.7
"2000/08/06",29.7,31.8,28.5
"2000/08/07",29.7,31.1,29.0
"2000/08/08",30.0,32.2,28.8
"2000/08/09",29.9,30.7,29.3
"2000/08/10",29.2,30.7,28.8
"2000/08/11",29.2,30.1,28.7
"2000/08/12",29.2,29.8,28.9
"2000/08/13",28.2,28.9,27.3
"2000/08/14",27.1,27.5,26.5
"2000/08/15",27.7,28.8,26.2
"2000/08/16",28.0,28.8,27.5
"2000/08/17",27.9,28.9,27.3
"2000/08/18",27.7,28.6,27.0
"2000/08/19",27.8,28.8,27.1
"2000/08/20",27.6,28.8,26.9
"2000/08/21",27.4,27.9,27.0
"2000/08/22",27.5,28.3,27.1
"2000/08/23",28.2,30.0,27.4
"2000/08/24",28.2,29.0,27.6
"2000/08/25",28.6,30.2,27.7
"2000/08/26",28.5,29.3,28.1
"2000/08/27",29.1,30.9,28.2
"2000/08/28",29.2,30.4,28.5
"2000/08/29",29.1,30.8,28.5
"2000/08/30",29.1,30.5,28.3
"2000/08/31",28.7,29.1,28.4
"2000/09/01",28.4,28.8,28.1
"2000/09/02",28.2,28.8,27.4
"2000/09/03",27.3,28.2,26.2
"2000/09/04",26.3,26.8,25.9
"2000/09/05",24.9,26.1,23.3
"2000/09/06",24.6,25.7,23.2
"2000/09/07",25.1,25.3,25.0
"2000/09/08",25.6,26.9,25.1
"2000/09/09",25.4,26.0,25.1
"2000/09/10",25.7,26.6,25.3
"2000/09/11",25.6,25.9,25.4
"2000/09/12",25.5,25.9,25.0
"2000/09/13",25.5,25.8,25.1
"2000/09/14",25.4,26.2,25.0
"2000/09/15",25.8,26.5,25.3
"2000/09/16",25.9,26.4,25.5
"2000/09/17",26.3,26.8,26.0
"2000/09/18",26.6,27.6,26.0
"2000/09/19",26.5,27.1,26.0
"2000/09/20",26.2,26.5,25.8
"2000/09/21",26.1,27.1,25.2
"2000/09/22",26.0,27.2,25.1
"2000/09/23",25.5,25.8,25.1
"2000/09/24",25.3,25.9,24.9
"2000/09/25",25.5,27.4,24.8
"2000/09/26",24.7,25.3,23.8
"2000/09/27",24.4,26.1,23.1
"2000/09/28",24.3,25.0,23.2
"2000/09/29",23.9,24.5,23.3
"2000/09/30",23.7,24.2,23.0
"2000/10/01",23.2,23.5,22.9
"2000/10/02",22.5,22.9,22.2
"2000/10/03",22.2,22.9,21.2
"2000/10/04",22.4,23.0,22.2
"2000/10/05",21.9,22.3,21.5
"2000/10/06",21.1,21.5,20.9
"2000/10/07",20.8,21.2,20.4
"2000/10/08",20.7,21.1,20.3
"2000/10/09",20.4,20.7,19.9
"2000/10/10",20.5,21.1,19.8
"2000/10/11",21.3,22.7,20.4
"2000/10/12",21.4,22.9,20.6
"2000/10/13",20.6,21.4,20.2
"2000/10/14",20.3,20.9,19.0
"2000/10/15",20.0,20.2,19.8
"2000/10/16",19.8,19.9,19.5
"2000/10/17",19.3,19.5,18.8
"2000/10/18",18.9,19.2,18.6
"2000/10/19",18.6,19.5,17.9
"2000/10/20",18.4,18.6,18.3
"2000/10/21",18.7,20.1,17.8
"2000/10/22",18.6,18.9,18.5
"2000/10/23",18.2,18.4,18.1
"2000/10/24"," *"," *"," *"
"2000/10/25",17.8,18.1,17.4
"2000/10/26",18.3,19.1,17.8
"2000/10/27",18.1,18.8,17.7
"2000/10/28",17.6,17.9,17.1
"2000/10/29",16.8,17.4,15.8
"2000/10/30",16.0,16.3,15.4
"2000/10/31",16.1,16.7,15.0
"2000/11/01",16.1,16.3,16.0
"2000/11/02",16.0,16.1,15.9
"2000/11/03",15.8,15.9,15.6
"2000/11/04",15.6,15.9,15.1
"2000/11/05",16.1,17.2,15.1
"2000/11/06",16.2,16.6,15.7
"2000/11/07",15.8,16.0,15.6
"2000/11/08",15.9,16.5,15.5
"2000/11/09",15.0,15.5,14.6
"2000/11/10",14.2,14.6,13.5
"2000/11/11",14.2,14.6,13.8
"2000/11/12",13.7,14.1,13.1
"2000/11/13",13.5,14.2,12.9
"2000/11/14",13.3,13.7,13.1
"2000/11/15"," *"," *"," *"
"2000/11/16"," *"," *"," *"
"2000/11/17"," *"," *"," *"
"2000/11/18",12.7,13.3,11.9
"2000/11/19",12.2,12.7,11.6
"2000/11/20",11.8,12.3,11.3
"2000/11/21",12.2,12.5,11.4
"2000/11/22",12.1,12.4,11.6
"2000/11/23",11.2,11.6,10.9
"2000/11/24",11.3,12.3,10.4
"2000/11/25",11.8,12.0,11.5
"2000/11/26",12.2,13.3,11.5
"2000/11/27",12.6,13.1,12.0
"2000/11/28",12.1,12.7,11.5
"2000/11/29",10.8,11.5, 9.1
"2000/11/30",10.9,11.3,10.3
"2000/12/01",10.2,10.6,10.0
"2000/12/02", 9.8,10.2, 9.5
"2000/12/03", 9.6,10.0, 9.2
"2000/12/04", 9.7,10.1, 9.5
"2000/12/05", 9.4, 9.6, 8.7
"2000/12/06", 8.4, 9.2, 7.4
"2000/12/07", 7.9, 8.7, 6.9
"2000/12/08", 8.0, 8.4, 7.2
"2000/12/09", 8.4, 9.3, 7.9
"2000/12/10", 8.3, 8.5, 8.1
"2000/12/11", 8.2, 8.5, 7.8
"2000/12/12", 6.7, 7.8, 5.5
"2000/12/13", 6.6, 7.2, 6.3
"2000/12/14", 6.6, 6.8, 5.7
"2000/12/15", 6.6, 7.6, 5.7
"2000/12/16", 7.0, 7.4, 6.7
"2000/12/17", 7.1, 7.3, 6.7
"2000/12/18", 7.1, 7.3, 7.0
"2000/12/19", 7.5, 8.4, 7.1
"2000/12/20", 7.3, 7.5, 7.2
"2000/12/21", 7.5, 8.2, 7.1
"2000/12/22", 7.2, 7.4, 7.1
"2000/12/23", 7.3, 7.6, 7.1
"2000/12/24", 7.3, 7.8, 6.8
"2000/12/25", 7.3, 7.8, 6.8
"2000/12/26", 6.4, 7.1, 4.8
"2000/12/27", 5.9, 6.5, 4.7
"2000/12/28", 5.8, 6.5, 5.0
"2000/12/29", 5.7, 6.6, 4.8
"2000/12/30", 5.4, 5.8, 5.1
"2000/12/31", 5.4, 5.6, 5.2
